DW8913 Weather Reports


Display with metric or nautical units.
time (UTC)temp
F
wind
direction
speed
MPH
gust
MPH
rain 1hr
in
rain 24hr
in
rain mn
in
humidity
%
barometer
mb
20260508211506 59 70 1.0 7.0 0.00 0.00 0.00 56 1011.9
20260508210048 59 118 3.0 9.0 0.00 0.00 0.00 54 1012.0
20260508204519 59 61 2.0 12.0 0.00 0.00 0.00 55 1012.1
20260508203114 60 162 2.0 8.0 0.00 0.00 0.00 52 1012.3
20260508201530 61 166 2.0 6.0 0.00 0.00 0.00 51 1012.5
20260508200105 62 216 3.0 8.0 0.00 0.00 0.00 47 1012.5
20260508194535 63 177 3.0 7.0 0.00 0.01 0.00 44 1012.5
20260508193002 63 108 3.0 8.0 0.00 0.01 0.00 47 1012.6
20260508191544 63 81 2.0 10.0 0.00 0.01 0.00 48 1012.6
20260508190027 63 36 3.0 9.0 0.00 0.01 0.00 52 1012.7
20260508184622 63 67 3.0 11.0 0.00 0.01 0.00 51 1012.9
20260508183023 64 70 2.0 12.0 0.00 0.01 0.00 50 1012.9
20260508181603 67 56 2.0 10.0 0.00 0.01 0.00 50 1012.8
20260508180032 70 174 1.0 5.0 0.00 0.01 0.00 33 1012.9
20260508174619 70 68 1.0 5.0 0.00 0.01 0.00 34 1012.9
20260508173044 69 68 1.0 8.0 0.00 0.01 0.00 38 1013.2
20260508171517 69 79 1.0 5.0 0.00 0.01 0.00 35 1013.2
20260508170052 69 48 1.0 5.0 0.00 0.01 0.00 33 1013.5
20260508164524 68 79 1.0 5.0 0.00 0.01 0.00 35 1013.7
20260508163059 68 66 1.0 6.0 0.00 0.01 0.00 33 1013.9
20260508161539 69 285 1.0 5.0 0.00 0.01 0.00 34 1013.8
20260508160108 69 17 2.0 5.0 0.00 0.01 0.00 36 1013.9
20260508154541 68 347 1.0 6.0 0.00 0.01 0.00 35 1013.8
20260508153008 67 126 0.0 3.0 0.00 0.01 0.00 40 1014.0
20260508151556 67 13 0.0 3.0 0.00 0.01 0.00 37 1014.1
20260508150027 67 141 0.0 4.0 0.00 0.01 0.00 39 1014.2
20260508144604 67 345 0.0 3.0 0.00 0.01 0.00 39 1014.4
20260508143037 65 242 0.0 3.0 0.00 0.01 0.00 38 1014.4
20260508141510 64 327 0.0 2.0 0.00 0.01 0.00 40 1014.4
20260508140101 64 30 1.0 5.0 0.00 0.01 0.00 38 1014.5
20260508134525 63 91 0.0 4.0 0.00 0.01 0.00 40 1014.5
20260508133114 62 13 0.0 7.0 0.00 0.01 0.00 44 1014.6
20260508131539 62 229 0.0 2.0 0.00 0.01 0.00 46 1014.6
20260508130012 59 62 2.0 6.0 0.00 0.01 0.00 49 1014.5
20260508124550 58 41 0.0 6.0 0.00 0.01 0.00 58 1014.4
20260508123019 55 46 3.0 7.0 0.00 0.01 0.00 59 1014.3
20260508121603 53 107 1.0 5.0 0.00 0.01 0.00 65 1014.2
20260508120030 52 35 2.0 5.0 0.00 0.01 0.00 67 1014.0
20260508114615 51 23 2.0 8.0 0.00 0.01 0.00 68 1014.1
20260508113052 51 198 2.0 8.0 0.00 0.01 0.00 70 1013.7
20260508111507 50 6 1.0 6.0 0.00 0.01 0.00 72 1013.5
20260508110044 49 73 0.0 3.0 0.00 0.01 0.00 74 1013.5
20260508104512 49 33 0.0 4.0 0.00 0.01 0.00 74 1013.3
20260508103056 50 300 0.0 7.0 0.00 0.01 0.00 72 1012.9
20260508101542 50 15 2.0 8.0 0.00 0.01 0.00 73 1012.9
20260508100006 50 32 1.0 9.0 0.00 0.01 0.00 73 1012.7
20260508094543 50 349 2.0 7.0 0.00 0.01 0.00 75 1012.3
20260508093018 50 24 1.0 5.0 0.00 0.01 0.00 76 1012.0
20260508091627 51 282 1.0 4.0 0.00 0.01 0.00 77 1011.7
20260508090030 51 105 1.0 4.0 0.00 0.01 0.00 78 1011.4
20260508084606 51 309 1.0 4.0 0.00 0.01 0.00 78 1011.1
20260508083041 52 38 1.0 4.0 0.00 0.01 0.00 79 1010.9
20260508081509 52 14 1.0 5.0 0.00 0.01 0.00 79 1010.5
20260508080051 53 112 0.0 4.0 0.00 0.01 0.00 80 1010.3
20260508074511 53 155 0.0 3.0 0.00 0.02 0.00 82 1010.2
20260508073008 52 188 0.0 1.0 0.00 0.02 0.00 83 1010.0
20260508071547 52 38 0.0 1.0 0.00 0.02 0.00 83 1009.8
20260508070016 53 224 0.0 0.0 0.00 0.02 0.00 82 1009.7
20260508064557 52 58 0.0 4.0 0.00 0.02 0.00 84 1009.7
20260508063048 52 154 0.0 2.0 0.00 0.02 0.00 84 1009.7
20260508061503 51 231 0.0 1.0 0.00 0.02 0.00 84 1009.6
20260508060042 51 86 0.0 3.0 0.00 0.02 0.00 85 1009.6
20260508054514 51 102 0.0 2.0 0.00 0.02 0.00 86 1009.8
20260508053101 50 101 0.0 2.0 0.00 0.02 0.00 86 1009.8
20260508051530 50 123 0.0 1.0 0.00 0.02 0.00 86 1009.8
20260508050003 50 122 0.0 0.0 0.00 0.02 0.00 86 1009.9
20260508044548 50 123 0.0 0.0 0.00 0.02 0.00 87 1009.9
20260508043017 50 124 0.0 0.0 0.00 0.02 0.00 87 1009.8
20260508041558 50 124 0.0 1.0 0.00 0.02 0.00 87 1009.8
20260508040025 51 122 0.0 1.0 0.00 0.02 0.00 87 1009.7
20260508034612 51 115 0.0 3.0 0.00 0.02 0.02 87 1009.6
20260508033048 51 129 0.0 1.0 0.00 0.02 0.02 86 1009.6
20260508031508 51 40 0.0 1.0 0.00 0.02 0.02 86 1009.8
20260508030053 51 96 0.0 0.0 0.00 0.02 0.02 85 1009.7
20260508024524 51 116 0.0 2.0 0.00 0.02 0.02 85 1009.8
20260508023103 51 117 0.0 2.0 0.00 0.02 0.02 84 1009.7
20260508021538 52 155 0.0 2.0 0.00 0.02 0.02 85 1009.9
20260508020001 52 141 0.0 1.0 0.00 0.02 0.02 86 1009.7
20260508014545 52 190 0.0 1.0 0.00 0.02 0.02 85 1009.6
20260508013013 52 99 0.0 1.0 0.00 0.02 0.02 82 1009.6
20260508011556 53 154 0.0 2.0 0.00 0.02 0.02 81 1009.3
20260508010046 53 109 0.0 3.0 0.00 0.02 0.02 80 1009.0
20260508004612 53 163 0.0 1.0 0.00 0.02 0.02 80 1009.0
20260508003044 53 92 1.0 5.0 0.00 0.02 0.02 81 1008.9
20260508001515 54 154 0.0 3.0 0.00 0.02 0.02 80 1008.6
20260508000056 54 125 0.0 3.0 0.00 0.02 0.02 78 1008.5
20260507234524 54 111 0.0 3.0 0.00 0.02 0.02 77 1008.7
20260507233105 54 158 0.0 6.0 0.00 0.02 0.02 77 1008.5
20260507231541 55 87 1.0 9.0 0.00 0.02 0.02 75 1008.4
20260507230026 56 130 1.0 5.0 0.00 0.02 0.02 74 1008.4
20260507224554 56 120 0.0 3.0 0.00 0.02 0.02 70 1007.9
20260507223040 57 158 0.0 4.0 0.00 0.02 0.02 71 1008.2
20260507221603 57 246 1.0 5.0 0.00 0.02 0.02 71 1008.1
20260507220033 57 140 1.0 6.0 0.00 0.02 0.02 72 1008.4
20260507214510 56 124 1.0 6.0 0.00 0.02 0.02 74 1008.6
20260507213111 56 83 0.0 5.0 0.00 0.02 0.02 78 1008.5